Location: B�hl
(48.6968°N, 8.1352°E)
Time: 21:29:59
(UTC+00:00)

CREW DRAGON DEMO-1 DEB - Pass Details

Date: 08 March 2021
Orbit: 318 x 321 km, 51.6° (Epoch: 14 April)

Event Time Altitude Azimuth Distance (km) Brightness Sun altitude
Rises 18:18:53 0° 222° (SW) 2,146 7.2 -10.2°
Reaches altitude 10° 18:21:00 10° 211° (SSW) 1,306 5.9 -10.5°
Maximum altitude 18:23:38 31° 147° (SSE) 645 3.7 -10.9°
Enters shadow 18:25:03 20° 98° (E) 887 4.0 -11.2°
